Location: Antioch Baptist Church
(32.6696°N, 85.7327°W)
Time: 21:15:46
(UTC+00:00)

Cosmos 1741 Rocket - Pass Details

Date: 14 July 2020
Orbit: 761 x 783 km, 74.0° (Epoch: 13 August)

Event Time Altitude Azimuth Distance (km) Brightness Sun altitude
Exits shadow 08:05:25 50° 125° (SE) 961 4.4 -26.7°
Maximum altitude 08:05:57 52° 103° (ESE) 936 4.5 -26.6°
Drops below altitude 10° 08:11:00 10° 27° (NNE) 2,298 7.5 -26.0°
Sets 08:13:25 0° 23° (NNE) 3,229 8.5 -25.7°
